COSMOS 2546 (45608 NORAD) Tracking and Keplerian Element Data

This shows tracking and keplerian element data for the satellite.

Feedback or suggestion? Click here.




ElementValue
Catalog45608
NameCOSMOS 2546
Epoch Orbit94
Epoch Day190.22445192
Epoch Year2020
RAAN297.7297
Inclination63.7527
Eccentricity0.6958801
Argument of Perigee269.854
Mean Anonmoly71.1006
Mean Motion2.00619197
Decay Rate-8.06E-06
L11 45608U 20031A 20190.22445192 -.00000806 00000-0 00000+0 0 9994
L22 45608 63.7527 297.7297 6958801 269.8540 71.1006 2.00619197 942

Live tracking and technical data element details for COSMOS 2546 (NORAD 45608). COSMOS 2546 can be tracked NOW for your location showing map with azimuth and elevation plus other details from your city location.

Track the satellite on the map from your city or location and see movement details for azimuth, elevation, latitude, longitude, range, height, and movement on the map or in text.







IsCatalogInMostPopularTable: catalog: 45608, numindb: 10
Update: records affected: 1



GetName: 45608 COSMOS 2546

Hit Count: updated at: Thu, 09 Jul 2020 02:40:11 GMT